Location: ???
(32.3885°N, 98.2106°E)
Time: 11:28:06
(UTC+00:00)

ISS - Visible Passes

Search period start: 10 October 2024 00:00
Search period end: 20 October 2024 00:00
Orbit: 412 x 424 km, 51.6° (Epoch: 10 October)

Date Brightness Start Highest point End Pass type
(mag) Time Alt. Az. Time Alt. Az. Time Alt. Az.
12 Oct -0.6 22:56:01 10° SSE 22:57:39 13° SE 22:59:16 10° E visible
14 Oct -2.7 22:54:33 10° SSW 22:57:44 46° SE 23:00:57 10° ENE visible
15 Oct -1.5 22:06:52 10° S 22:09:34 23° SE 22:12:17 10° ENE visible
16 Oct -0.7 21:21:22 12° SE 21:21:24 12° SE 21:22:48 10° E visible
16 Oct -3.4 22:54:38 10° WSW 22:57:50 44° NW 23:01:02 10° NNE visible
17 Oct -3.9 22:08:53 59° SW 22:09:26 89° NW 22:12:46 10° NE visible
18 Oct -1.0 21:23:09 18° ENE 21:23:09 18° ENE 21:24:14 10° ENE visible
18 Oct -1.9 22:56:06 11° WNW 22:57:56 16° NNW 23:00:08 10° N visible
19 Oct -2.2 22:10:08 23° NNW 22:10:08 23° NNW 22:12:11 10° NNE visible
